Latest Coastal Weather Observations for Spring Bay

IDT60701

Issued at 6:11 am EDT Tuesday 9 February 2016 (issued every 10 minutes, with the page automatically refreshed every 10 minutes)

About coastal observations | Map of coastal stations | Coastal observations for TAS | Marine services | Other Formats
Station Details ID: 092133 Name: SPRING BAY NTC AWS Lat: -42.55 Lon: 147.93 Height: 0.0 m
Data from the previous 72 hours. | See also: Recent months for locations in Tasmania
Date/Time
EDT
Temp

°C
Wind Pressure Rain
since 9am
mm
Weather Cloud Vis
km
Sea
Height
m
Swell
Dir
 
Speed
knots
Gust
knots
hPa Trend Height
m
Period
s
Dir
09/06:00am 16.1 - - - 1020.6 - - - - - - - - -
09/05:30am 16.6 - - - 1020.3 - - - - - - - - -
09/05:00am 16.4 - - - 1020.4 - - - - - - - - -
09/04:30am 16.1 - - - 1020.3 - - - - - - - - -
09/04:00am 15.7 - - - 1020.3 - - - - - - - - -
09/03:30am 15.9 - - - 1020.3 - - - - - - - - -
09/03:00am 16.2 - - - 1020.3 - - - - - - - - -
09/02:30am 17.0 - - - 1020.3 - - - - - - - - -
09/02:00am 16.9 - - - 1020.3 - - - - - - - - -
09/01:30am 17.6 - - - 1020.4 - - - - - - - - -
09/01:00am 18.7 - - - 1020.6 - - - - - - - - -
09/12:30am 18.6 - - - 1020.7 - - - - - - - - -
09/12:00am 18.9 - - - 1020.7 - - - - - - - - -
 
Date/Time
EDT
Temp

°C
Wind Pressure Rain
since 9am
mm
Weather Cloud Vis
km
Sea
Height
m
Swell
Dir
 
Speed
knots
Gust
knots
hPa Trend Height
m
Period
s
Dir
08/11:30pm 19.0 - - - 1020.7 - - - - - - - - -
08/11:00pm 19.5 - - - 1020.7 - - - - - - - - -
08/10:30pm 19.1 - - - 1020.7 - - - - - - - - -
08/10:00pm 19.4 - - - 1020.5 - - - - - - - - -
08/09:30pm 19.2 - - - 1020.4 - - - - - - - - -
08/09:00pm 19.3 - - - 1019.9 - - - - - - - - -
08/08:30pm 19.6 - - - 1019.4 - - - - - - - - -
08/08:00pm 19.9 - - - 1019.1 - - - - - - - - -
08/07:30pm 20.1 - - - 1018.7 - - - - - - - - -
08/07:00pm 20.6 - - - 1018.4 - - - - - - - - -
08/06:30pm 20.3 - - - 1018.0 - - - - - - - - -
08/06:00pm 20.1 - - - 1018.0 - - - - - - - - -
08/05:30pm 20.3 - - - 1017.9 - - - - - - - - -
08/05:00pm 20.2 - - - 1017.6 - - - - - - - - -
08/04:30pm 20.3 - - - 1017.5 - - - - - - - - -
08/04:00pm 21.0 - - - 1017.3 - - - - - - - - -
08/03:30pm 20.6 - - - 1017.3 - - - - - - - - -
08/03:00pm 21.2 - - - 1017.3 - - - - - - - - -
08/02:30pm 21.6 - - - 1017.3 - - - - - - - - -
08/02:00pm 22.6 - - - 1017.1 - - - - - - - - -
08/01:30pm 22.3 - - - 1017.2 - - - - - - - - -
08/01:00pm 22.7 - - - 1017.1 - - - - - - - - -
08/12:30pm 22.5 - - - 1017.3 - - - - - - - - -
08/12:00pm 22.1 - - - 1017.4 - - - - - - - - -
08/11:30am 21.7 - - - 1017.5 - - - - - - - - -
08/11:00am 22.2 - - - 1017.6 - - - - - - - - -
08/10:30am 23.0 - - - 1017.7 - - - - - - - - -
08/10:00am 21.4 - - - 1018.0 - - - - - - - - -
08/09:30am 21.3 - - - 1018.0 - - - - - - - - -
08/09:00am 21.0 - - - 1017.9 - - - - - - - - -
08/08:30am 19.5 - - - 1017.9 - - - - - - - - -
08/08:00am 19.1 - - - 1017.6 - - - - - - - - -
08/07:30am 17.6 - - - 1017.4 - - - - - - - - -
08/07:00am 17.6 - - - 1017.1 - - - - - - - - -
08/06:30am 17.8 - - - 1017.0 - - - - - - - - -
08/06:00am 17.9 - - - 1016.8 - - - - - - - - -
08/05:30am 18.3 - - - 1016.5 - - - - - - - - -
08/05:00am 18.4 - - - 1016.5 - - - - - - - - -
08/04:30am 18.8 - - - 1016.4 - - - - - - - - -
08/04:00am 18.6 - - - 1016.4 - - - - - - - - -
08/03:30am 19.3 - - - 1016.5 - - - - - - - - -
08/03:00am 19.6 - - - 1016.8 - - - - - - - - -
08/02:30am 19.7 - - - 1017.0 - - - - - - - - -
08/02:00am 19.7 - - - 1017.0 - - - - - - - - -
08/01:30am 19.7 - - - 1017.2 - - - - - - - - -
08/01:00am 19.7 - - - 1017.4 - - - - - - - - -
08/12:30am 19.6 - - - 1017.4 - - - - - - - - -
08/12:00am 19.7 - - - 1017.4 - - - - - - - - -
 
Date/Time
EDT
Temp

°C
Wind Pressure Rain
since 9am
mm
Weather Cloud Vis
km
Sea
Height
m
Swell
Dir
 
Speed
knots
Gust
knots
hPa Trend Height
m
Period
s
Dir
07/11:30pm 19.8 - - - 1017.6 - - - - - - - - -
07/11:00pm 19.8 - - - 1017.8 - - - - - - - - -
07/10:30pm 19.7 - - - 1017.8 - - - - - - - - -
07/10:00pm 19.7 - - - 1017.8 - - - - - - - - -
07/09:30pm 19.7 - - - 1017.6 - - - - - - - - -
07/09:00pm 20.1 - - - 1017.5 - - - - - - - - -
07/08:30pm 20.0 - - - 1017.2 - - - - - - - - -
07/08:00pm 20.1 - - - 1017.0 - - - - - - - - -
07/07:30pm 20.1 - - - 1016.7 - - - - - - - - -
07/07:00pm 20.4 - - - 1016.4 - - - - - - - - -
07/06:30pm 20.6 - - - 1016.3 - - - - - - - - -
07/06:00pm 20.4 - - - 1016.3 - - - - - - - - -
07/05:30pm 20.8 - - - 1016.4 - - - - - - - - -
07/05:00pm 20.9 - - - 1016.6 - - - - - - - - -
07/04:30pm 20.5 - - - 1016.5 - - - - - - - - -
07/04:00pm 20.8 - - - 1016.6 - - - - - - - - -
07/03:30pm 21.1 - - - 1016.8 - - - - - - - - -
07/03:00pm 21.5 - - - 1016.8 - - - - - - - - -
07/02:30pm 21.8 - - - 1016.9 - - - - - - - - -
07/02:00pm 21.5 - - - 1016.9 - - - - - - - - -
07/01:30pm 21.3 - - - 1017.0 - - - - - - - - -
07/01:00pm 21.1 - - - 1017.2 - - - - - - - - -
07/12:30pm 20.5 - - - 1017.4 - - - - - - - - -
07/12:00pm 20.9 - - - 1017.7 - - - - - - - - -
07/11:30am 20.8 - - - 1017.9 - - - - - - - - -
07/11:00am 21.0 - - - 1017.8 - - - - - - - - -
07/10:30am 20.1 - - - 1018.1 - - - - - - - - -
07/10:00am 20.9 - - - 1017.9 - - - - - - - - -
07/09:30am 20.7 - - - 1017.9 - - - - - - - - -
07/09:00am 20.6 - - - 1017.9 - - - - - - - - -
07/08:30am 18.7 - - - 1017.8 - - - - - - - - -
07/08:00am 18.8 - - - 1017.7 - - - - - - - - -
07/07:30am 18.3 - - - 1017.5 - - - - - - - - -
07/07:00am 17.8 - - - 1017.3 - - - - - - - - -
07/06:30am 17.2 - - - 1016.9 - - - - - - - - -
07/06:00am 18.1 - - - 1016.8 - - - - - - - - -
07/05:30am 18.6 - - - 1016.4 - - - - - - - - -
07/05:00am 19.1 - - - 1016.3 - - - - - - - - -
07/04:30am 19.9 - - - 1016.1 - - - - - - - - -
07/04:00am 17.9 - - - 1016.3 - - - - - - - - -
07/03:30am 17.3 - - - 1016.6 - - - - - - - - -
07/03:00am 17.6 - - - 1016.8 - - - - - - - - -
07/02:30am 17.7 - - - 1016.9 - - - - - - - - -
07/02:00am 17.7 - - - 1016.8 - - - - - - - - -
07/01:30am 18.1 - - - 1017.0 - - - - - - - - -
07/01:00am 18.6 - - - 1017.0 - - - - - - - - -
07/12:30am 18.9 - - - 1017.1 - - - - - - - - -
07/12:00am 19.3 - - - 1017.3 - - - - - - - - -
 
Date/Time
EDT
Temp

°C
Wind Pressure Rain
since 9am
mm
Weather Cloud Vis
km
Sea
Height
m
Swell
Dir
 
Speed
knots
Gust
knots
hPa Trend Height
m
Period
s
Dir
06/11:30pm 19.6 - - - 1017.4 - - - - - - - - -
06/11:00pm 19.7 - - - 1017.4 - - - - - - - - -
06/10:30pm 20.0 - - - 1017.8 - - - - - - - - -
06/10:00pm 19.9 - - - 1018.1 - - - - - - - - -
06/09:30pm 19.9 - - - 1017.9 - - - - - - - - -
06/09:00pm 20.0 - - - 1017.7 - - - - - - - - -
06/08:30pm 20.3 - - - 1017.7 - - - - - - - - -
06/08:00pm 20.9 - - - 1017.6 - - - - - - - - -
06/07:30pm 21.3 - - - 1017.5 - - - - - - - - -
06/07:00pm 21.7 - - - 1017.3 - - - - - - - - -
06/06:30pm 21.8 - - - 1017.3 - - - - - - - - -
06/06:00pm 21.4 - - - 1017.5 - - - - - - - - -
06/05:30pm 21.8 - - - 1017.7 - - - - - - - - -

Other Formats:

Comma delimited format used in spreadsheet applications
http://www.bom.gov.au/fwo/IDT60701/IDT60701.95987.axf

JavaScript Object Notation format (JSON) in row-major order
http://www.bom.gov.au/fwo/IDT60701/IDT60701.95987.json